This demonstration page uses our WeatherBlox Daily Observations layout. Learn more.

Left ArrowRight Arrow

Hourly Observations for November 15, 2021

Temp ( °F °C ) Dew Point ( °F °C ) Humidity (%) Winds ( mph kmh ) Pressure ( in mb ) Visibility ( mi km ) Precip ( " mm )
12:15 am 00:15 Clear 37 3 30 -1.2 74 74 NNW 3 6 29.93 1013 10 16 0.00 0.00
12:35 am 00:35 Clear 37 2.9 30 -1.3 74 74 Calm 29.93 1013 10 16 0.00 0.00
12:55 am 00:55 Clear 39 4.1 30 -1.1 69 69 Calm 29.92 1013 10 16 0.00 0.00
1:15 am 01:15 Clear 40 4.2 30 -1.2 68 68 SW 3 6 29.91 1013 10 16 0.00 0.00
1:35 am 01:35 Clear 40 4.6 31 -0.4 70 70 W 8 13 29.91 1013 10 16 0.00 0.00
1:55 am 01:55 Clear 38 3.2 30 -0.9 75 75 Calm 29.92 1013 10 16 0.00 0.00
2:15 am 02:15 Clear 36 2.3 31 -0.7 81 81 W 3 6 29.92 1013 10 16 0.00 0.00
2:35 am 02:35 Clear 36 2.4 30 -1 79 79 Calm 29.92 1013 10 16 0.00 0.00
2:55 am 02:55 Clear 37 2.7 30 -0.9 77 77 W 5 7 29.93 1014 10 16 0.00 0.00
3:15 am 03:15 Clear 34 1.3 30 -1.1 84 84 WNW 5 7 29.93 1014 10 16 0.00 0.00
3:35 am 03:35 Clear 34 1.1 30 -1.1 85 85 NW 7 11 29.94 1014 10 16 0.00 0.00
3:55 am 03:55 Clear 34 1.2 31 -0.7 87 87 NW 9 15 29.94 1014 10 16 0.00 0.00
4:15 am 04:15 Clear 35 1.8 31 -0.6 84 84 NW 8 13 29.94 1014 10 16 0.00 0.00
4:35 am 04:35 Clear 36 2.2 32 -0.2 84 84 WNW 8 13 29.93 1014 10 16 0.00 0.00
4:55 am 04:55 Clear 35 1.5 31 -0.5 87 87 WNW 8 13 29.96 1015 10 16 0.00 0.00
5:15 am 05:15 Clear 37 2.6 32 0 83 83 NW 10 17 29.95 1014 10 16 0.00 0.00
5:35 am 05:35 Clear 37 3 33 0.3 83 83 NW 7 11 29.96 1014 10 16 0.00 0.00
5:55 am 05:55 Clear 39 3.7 33 0.8 82 82 NW 8 13 29.95 1014 10 16 0.00 0.00
6:15 am 06:15 Clear 38 3.6 33 0.7 82 82 WNW 10 17 29.95 1014 10 16 0.00 0.00
6:35 am 06:35 Clear 37 2.9 33 0.5 84 84 WNW 9 15 29.97 1015 10 16 0.00 0.00
6:55 am 06:55 Clear 38 3.1 34 1 86 86 WNW 9 15 29.97 1015 10 16 0.00 0.00
7:15 am 07:15 Clear 37 3 34 1 87 87 WNW 9 15 29.98 1015 10 16 0.00 0.00
7:35 am 07:35 Sunny 37 2.7 33 0.8 87 87 WNW 7 11 29.98 1015 10 16 0.00 0.00
7:55 am 07:55 Sunny 37 2.7 33 0.7 87 87 WNW 5 7 29.99 1016 10 16 0.00 0.00
8:15 am 08:15 Sunny 40 4.2 35 1.9 85 85 WNW 6 9 29.99 1015 10 16 0.00 0.00
8:35 am 08:35 Sunny 42 5.7 37 2.6 81 81 WNW 7 11 29.98 1015 10 16 0.00 0.00
8:55 am 08:55 Sunny 44 6.8 38 3.1 78 78 W 6 9 29.97 1015 10 16 0.00 0.00
9:15 am 09:15 Sunny 47 8.3 38 3.4 72 72 WNW 9 15 29.95 1014 10 16 0.00 0.00
9:35 am 09:35 Sunny 50 10.2 40 4.3 67 67 WNW 9 15 29.95 1014 10 16 0.00 0.00
9:55 am 09:55 Sunny 54 12.3 40 4.3 58 58 W 14 22 29.93 1014 10 16 0.00 0.00
10:15 am 10:15 Sunny 58 14.3 40 4.2 51 51 W 16 26 29.92 1013 10 16 0.00 0.00
10:35 am 10:35 Sunny 59 15.1 40 4.3 49 49 WNW 15 24 29.93 1013 10 16 0.00 0.00
10:55 am 10:55 Sunny 60 15.8 40 4.5 47 47 W 15 24 29.92 1013 10 16 0.00 0.00
11:15 am 11:15 Sunny 63 17.1 40 4.5 43 43 W 13 20 29.90 1012 10 16 0.00 0.00
11:35 am 11:35 Sunny 65 18.3 40 4.5 40 40 WNW 10 17 29.89 1012 10 16 0.00 0.00
11:55 am 11:55 Sunny 67 19.5 41 4.9 38 38 W 10 17 29.87 1011 10 16 0.00 0.00
12:15 pm 12:15 Sunny 69 20.5 40 4.6 35 35 W 10 17 29.85 1011 10 16 0.00 0.00
12:35 pm 12:35 Sunny 71 21.5 40 4.7 33 33 W 9 15 29.83 1010 10 16 0.00 0.00
12:55 pm 12:55 Sunny 72 22.1 40 4.4 32 32 W 8 13 29.82 1010 10 16 0.00 0.00
1:15 pm 13:15 Sunny 73 22.9 39 3.9 29 29 W 7 11 29.82 1010 10 16 0.00 0.00
1:35 pm 13:35 Sunny 74 23.1 39 3.8 28 28 WSW 7 11 29.81 1009 10 16 0.00 0.00
1:55 pm 13:55 Sunny 74 23.5 38 3.3 27 27 W 8 13 29.80 1009 10 16 0.00 0.00
2:15 pm 14:15 Sunny 76 24.3 34 0.9 22 22 NW 8 13 29.79 1009 10 16 0.00 0.00
2:35 pm 14:35 Sunny 76 24.7 30 -1.2 18 18 N 8 13 29.78 1009 10 16 0.00 0.00
2:55 pm 14:55 Sunny 76 24.5 31 -0.8 19 19 NNW 9 15 29.79 1009 10 16 0.00 0.00
3:15 pm 15:15 Sunny 76 24.5 29 -1.5 18 18 NNW 9 15 29.78 1009 10 16 0.00 0.00
3:35 pm 15:35 Sunny 76 24.2 29 -1.4 18 18 NW 7 11 29.80 1009 10 16 0.00 0.00
3:55 pm 15:55 Sunny 75 23.9 31 -0.4 20 20 WNW 5 7 29.80 1009 10 16 0.00 0.00
4:15 pm 16:15 Sunny 73 22.8 34 1.1 24 24 WNW 6 9 29.81 1009 10 16 0.00 0.00
4:35 pm 16:35 Sunny 71 21.5 34 0.9 26 26 WNW 3 6 29.82 1010 10 16 0.00 0.00
4:55 pm 16:55 Sunny 67 19.6 37 2.7 33 33 WNW 3 6 29.84 1010 7 11 0.00 0.00
5:15 pm 17:15 Sunny 64 17.8 34 1.3 33 33 WSW 3 6 29.85 1011 10 16 0.00 0.00
5:35 pm 17:35 Clear 63 17.2 33 0.7 33 33 Calm 29.86 1011 10 16 0.00 0.00
5:55 pm 17:55 Clear 56 13.6 34 1 43 43 SSW 3 6 29.89 1012 10 16 0.00 0.00
6:15 pm 18:15 Clear 57 13.7 33 0.6 41 41 Calm 29.89 1012 10 16 0.00 0.00
6:35 pm 18:35 Clear 55 12.5 33 0.6 44 44 Calm 29.90 1012 7 11 0.00 0.00
6:55 pm 18:55 Clear 52 11 33 0.3 48 48 S 3 6 29.90 1013 7 11 0.00 0.00
7:15 pm 19:15 Clear 49 9.5 33 0.5 54 54 SE 3 6 29.92 1013 7 11 0.00 0.00
7:35 pm 19:35 Clear 49 9.3 34 1 56 56 SE 3 6 29.91 1013 10 16 0.00 0.00
7:55 pm 19:55 Clear 48 8.7 33 0.7 58 58 SE 3 6 29.90 1013 10 16 0.00 0.00
8:15 pm 20:15 Clear 48 9 33 0.3 55 55 Calm 29.90 1013 10 16 0.00 0.00
8:35 pm 20:35 Clear 44 6.8 32 0 62 62 Calm 29.92 1013 10 16 0.00 0.00
8:55 pm 20:55 Clear 42 5.5 32 0 68 68 Calm 29.92 1013 10 16 0.00 0.00
9:15 pm 21:15 Clear 41 5.1 32 0 70 70 Calm 29.93 1013 10 16 0.00 0.00
9:35 pm 21:35 Clear 40 4.5 32 0 73 73 Calm 29.93 1014 10 16 0.00 0.00
9:55 pm 21:55 Clear 41 4.9 32 -0.1 70 70 Calm 29.93 1014 10 16 0.00 0.00
10:15 pm 22:15 Clear 41 5 31 -0.5 68 68 Calm 29.92 1013 10 16 0.00 0.00
10:35 pm 22:35 Clear 38 3.2 30 -0.9 75 75 Calm 29.93 1013 10 16 0.00 0.00
10:55 pm 22:55 Clear 38 3.6 31 -0.5 75 75 S 3 6 29.91 1013 10 16 0.00 0.00
11:15 pm 23:15 Clear 38 3.5 31 -0.5 75 75 Calm 29.91 1013 10 16 0.00 0.00
11:35 pm 23:35 Clear 37 2.7 31 -0.5 80 80 Calm 29.91 1013 10 16 0.00 0.00
11:55 pm 23:55 Clear 37 3 31 -0.3 79 79 Calm 29.91 1013 10 16 0.00 0.00

Powered by AerisWeather